EHI
0 0 0 0 0 1 2 2 1 1 2 4 5 5 4 2 0 0 0 0 0 0 0 0 0 0 0 0 0 0 0 0 0 0 0 0 0 0 0 0 0 0 0
0 0 0 0 0 1 2 2 1 0 1 3 4 4 4 2 1 1 1 0 0 0 0 0 0 0 0 0 0 0 0 0 0 0 0 0 0 0 0 0 0 0 0
0 0 0 0 0 1 2 2 1 0 0 1 1 2 2 2 2 2 2 1 0 0 0 0 0 0 0 0 0 0 0 0 0 0 0 0 0 0 0 0 0 0 0
0 0 0 0 0 1 2 1 0 0 0 0 0 0 0 1 2 2 2 1 0 0 0 0 0 0 0 0 0 0 0 0 0 0 0 0 0 0 0 0 0 0 0
0 0 0 0 0 1 1 1 0 0 0 0 0 0 0 0 1 1 1 0 0 0 0 0 0 0 0 0 0 0 0 0 0 0 0 0 0 0 0 0 0 0 0
0 0 0 0 0 0 1 0 0 0 0 0 0 0 0 0 0 0 0 0 0 0 0 0 0 0 0 0 0 0 0 0 0 0 0 0 0 0 0 0 0 0 0
0 0 0 0 0 1 1 1 0 0 0 0 0 0 0 0 0 0 0 0 0 0 0 0 0 0 0 0 0 0 0 0 0 0 0 0 0 0 0 0 0 0 0
0 0 0 0 0 1 2 1 0 0 0 0 0 0 0 0 0 0 0 0 0 0 0 0 0 0 0 0 0 0 0 0 0 0 0 0 0 0 0 0 0 0 0
0 0 0 0 0 0 1 1 0 0 0 0 0 0 0 0 0 0 0 0 0 0 0 0 0 0 0 0 0 0 0 0 0 0 0 0 0 0 0 0 0 0 0
0 0 0 0 0 0 0 0 0 0 0 0 0 0 0 0 0 0 0 0 0 0 0 0 0 0 0 0 0 0 0 0 0 0 0 0 0 0 0 0 0 0 0
0 0 0 0 0 0 0 0 0 0 0 0 0 0 0 0 0 0 0 0 0 0 0 0 0 0 0 0 0 0 0 0 0 0 0 0 0 0 0 0 0 0 0
0 0 0 0 0 0 0 0 0 0 0 0 0 0 0 0 0 0 0 0 0 0 0 0 0 0 0 0 0 0 0 0 0 0 0 0 0 0 0 0 0 0 0
0 0 0 0 0 0 0 0 0 0 0 0 0 0 0 0 0 0 0 0 0 0 0 0 0 0 0 0 0 0 0 0 0 0 0 0 0 0 0 0 0 0 0
0 0 0 0 0 0 0 0 0 0 0 0 0 0 0 0 0 0 0 0 0 0 0 0 0 0 0 0 0 0 0 0 0 0 0 0 0 0 0 0 0 0 0
0 0 0 0 0 0 0 0 0 0 0 0 0 0 0 0 0 0 0 0 0 0 0 0 0 0 0 0 0 0 0 0 0 0 0 0 0 0 0 0 0 0 0
0 0 0 0 0 0 0 0 0 0 0 0 0 0 0 0 0 0 0 0 0 0 0 0 0 0 0 0 0 0 0 0 0 0 0 0 0 0 0 0 0 0 0
0 0 0 0 0 0 0 0 0 0 0 0 0 0 0 0 0 0 0 0 0 0 0 0 0 0 0 0 0 0 0 0 0 0 0 0 0 0 0 0 0 0 0
0 0 0 0 0 0 0 0 0 0 0 0 0 0 0 0 0 0 0 0 0 0 0 0 0 0 0 0 0 0 0 0 0 0 0 0 0 0 0 0 0 0 0
0 0 0 0 0 0 0 0 0 0 0 0 0 0 0 0 0 0 0 0 0 0 0 0 0 0 0 0 0 0 0 0 0 0 0 0 0 0 0 0 0 0 0
0 0 0 0 0 0 0 0 0 0 0 0 0 0 0 0 0 0 0 0 0 0 0 0 0 0 0 0 0 0 0 0 0 0 0 0 0 0 0 0 0 0 0
0 0 0 0 0 0 0 0 0 0 0 0 0 0 0 0 0 0 0 0 0 0 0 0 0 0 0 0 0 0 0 0 0 0 0 0 0 0 0 0 0 0 0
0 0 0 0 0 0 0 0 0 0 0 0 0 0 0 0 0 0 0 0 0 0 0 0 0 0 0 0 0 0 0 0 0 0 0 0 0 0 0 0 0 0 0
0 0 0 0 0 0 0 0 0 0 0 0 0 0 0 0 0 0 0 0 0 0 0 0 0 0 0 0 0 0 0 0 0 0 0 0 0 0 0 0 0 0 0
0 0 0 0 0 0 0 0 0 0 0 0 0 0 0 0 0 0 0 0 0 0 0 0 0 0 0 0 0 0 0 0 0 0 0 0 0 0 0 0 0 0 0
0 0 0 0 0 0 0 0 0 0 0 0 0 0 0 0 0 0 0 0 0 0 0 0 0 0 0 0 0 0 0 0 0 0 0 0 0 0 0 0 0 0 0
0 0 0 0 0 0 0 0 0 0 0 0 0 0 0 0 0 0 0 0 0 0 0 0 0 0 0 0 0 0 0 0 0 0 0 0 0 0 0 0 0 0 0
Wind_Speed
5 4 4 4 4 4 4 4 3 2 2 2 2 2 1 1 0 0 1 1 0 0 1 0 0 0 0 1 0 0 1 2 1 1 2 3 2 2 2 1 1 2 2
5 5 4 4 4 4 3 3 3 2 2 2 1 1 1 1 1 0 1 1 1 0 0 1 0 0 0 1 1 1 0 1 1 0 1 3 4 2 2 1 2 2 2
9 7 6 5 4 4 3 3 3 3 2 2 2 2 2 1 1 1 1 1 1 1 0 0 1 1 1 1 1 1 1 1 2 1 1 1 2 3 3 2 2 2 2
7 6 6 5 5 4 3 3 3 2 2 2 3 3 2 1 1 1 1 1 1 1 1 0 0 0 0 1 1 1 1 1 2 2 1 2 2 1 3 3 2 2 2
6 7 7 7 5 4 3 3 3 3 2 2 2 2 1 1 0 0 1 1 1 2 1 1 0 1 1 1 1 1 1 1 2 2 1 2 1 2 2 4 3 3 2
5 5 5 5 4 4 3 3 3 2 2 2 2 2 2 1 1 0 0 1 1 1 2 1 1 1 1 1 1 1 2 2 2 2 2 2 2 2 2 3 3 3 3
5 5 5 5 5 4 4 3 3 2 2 2 2 1 1 2 2 1 1 1 1 1 2 1 1 2 2 2 1 1 2 2 2 3 3 3 3 2 2 2 3 3 3
4 5 5 5 5 5 4 3 3 2 2 2 1 1 1 1 1 1 1 1 2 2 2 1 2 2 2 2 2 2 2 2 2 3 3 3 3 2 2 2 2 3 3
3 4 4 3 4 4 4 4 4 2 2 1 1 1 1 1 1 1 1 1 1 2 1 1 1 2 2 2 2 2 3 2 2 3 3 2 2 2 2 2 2 3 3
2 2 3 3 3 3 3 3 3 3 2 1 1 1 1 1 1 1 1 1 2 2 1 1 1 1 2 2 2 2 3 2 2 2 2 2 2 2 2 2 3 3 3
3 2 2 2 2 2 2 2 2 2 1 1 1 0 1 1 1 1 1 1 2 2 2 1 1 1 1 1 1 2 2 2 3 2 2 3 3 2 2 2 2 2 2
2 2 2 2 2 2 2 2 2 2 1 1 0 0 0 0 0 0 1 1 1 2 1 1 1 2 2 2 2 2 2 2 3 3 2 3 2 3 3 2 2 2 2
1 1 1 1 1 1 2 1 1 1 1 1 1 0 0 0 0 1 1 1 1 1 1 1 1 1 2 2 2 2 2 2 2 3 3 3 2 3 3 3 2 2 2
2 2 1 1 1 1 1 1 0 0 0 1 1 0 1 1 1 1 0 0 1 1 1 1 1 1 2 1 2 2 2 2 2 2 3 3 3 3 3 3 3 2 2
1 2 2 1 1 1 1 1 0 0 0 1 0 1 1 0 0 0 0 1 1 1 1 1 1 1 1 1 1 1 1 2 2 2 3 3 4 5 4 3 3 2 2
3 2 2 1 1 1 1 1 0 0 1 1 1 0 0 0 0 0 0 1 1 1 1 1 1 1 2 3 3 2 1 1 2 3 3 4 4 5 6 6 6 4 3
4 3 3 3 3 2 2 2 2 1 1 1 1 0 0 0 0 0 1 1 1 1 1 1 1 1 2 4 4 4 2 1 2 2 3 3 3 4 3 4 5 5 6
4 4 3 3 2 2 1 1 1 1 1 1 1 1 1 1 0 0 0 0 0 0 1 1 1 1 3 4 4 4 2 1 2 3 3 3 3 3 3 2 2 3 4
4 4 3 3 2 2 2 2 1 1 1 1 1 2 1 1 1 1 1 1 0 1 1 1 1 1 3 5 5 4 1 1 3 3 3 3 3 6 6 3 3 3 4
2 2 2 2 2 2 2 2 1 1 2 2 2 2 2 2 2 2 1 1 1 1 1 1 1 1 2 4 5 5 1 2 2 3 3 5 5 6 6 3 2 3 4
2 2 3 2 2 2 2 2 2 2 2 2 1 1 1 2 2 1 1 1 1 1 1 2 2 2 3 4 5 5 2 2 2 3 3 3 7 7 6 5 3 4 4
1 2 2 2 1 2 3 2 3 3 1 1 1 1 1 2 1 1 1 1 1 1 1 2 3 2 3 3 4 6 5 4 2 3 3 4 7 7 7 5 5 6 5
1 1 2 1 1 2 3 3 3 2 1 1 1 1 1 1 1 2 2 1 1 1 2 2 2 3 2 3 5 6 6 6 3 3 5 6 7 6 4 5 6 5 2
1 1 2 2 2 2 2 2 2 1 1 1 2 1 1 1 1 1 2 2 2 2 2 2 2 3 3 3 3 3 3 4 4 3 4 5 5 4 4 4 4 2 2
1 1 2 2 2 2 2 2 2 2 2 2 2 2 2 2 2 2 2 3 3 3 3 3 3 3 3 5 6 4 3 2 3 2 2 2 2 2 2 2 2 2 2
1 1 2 2 2 2 2 2 2 2 2 2 2 2 2 2 2 1 2 3 4 5 5 5 5 4 6 8 8 8 7 6 5 2 1 2 2 2 2 2 3 2 2
Wind_Direction
193 173 157 138 124 117 118 120 116 117 127 132 136 141 149 150 113 81 39 11 360 177 171 141 109 36 333 292 304 304 326 328 341 352 326 315 301 287 273 262 257 268 265
181 175 162 146 143 143 137 133 132 134 142 150 155 160 164 177 195 174 27 15 357 305 192 153 195 221 263 335 338 4 335 316 347 43 348 327 326 320 296 281 261 269 282
189 183 174 167 157 156 157 151 144 136 136 133 119 97 78 58 35 2 336 345 345 333 315 191 195 225 206 232 264 251 257 271 295 276 182 197 265 304 302 285 288 297 297
190 181 175 171 173 174 159 146 140 122 108 114 131 139 144 177 223 243 263 328 354 336 340 52 92 303 262 258 262 245 243 231 257 280 268 234 208 241 299 305 307 311 290
182 178 175 173 167 160 151 143 133 121 110 104 125 137 146 191 214 319 349 334 354 352 349 347 36 346 302 283 292 282 263 238 239 245 271 281 270 236 239 284 306 317 297
168 167 160 150 147 145 142 139 136 129 125 115 113 128 148 158 138 142 289 311 331 346 344 345 350 325 303 287 277 271 269 256 254 255 250 252 252 247 243 262 284 291 292
163 158 151 153 153 152 153 149 145 139 137 126 119 134 152 154 164 202 241 269 296 301 297 314 304 306 297 291 290 280 281 270 267 259 257 256 257 258 246 252 274 284 289
160 159 161 165 168 165 160 156 157 160 155 145 149 156 154 153 183 195 243 258 264 268 269 281 294 296 298 310 312 292 280 275 269 274 274 271 269 264 257 241 250 281 280
159 162 161 162 168 169 170 168 166 164 161 157 167 165 158 164 194 214 226 260 290 290 284 279 291 300 305 303 301 297 289 278 269 271 278 279 286 276 267 257 234 235 262
146 153 160 164 169 166 163 157 158 164 157 143 176 168 181 194 197 190 224 255 277 290 296 292 291 299 316 319 313 308 307 299 289 273 276 284 286 297 286 268 253 238 238
172 174 169 162 152 133 135 145 152 140 133 142 171 168 219 214 196 201 234 247 265 269 271 293 297 303 307 304 306 306 308 311 309 306 291 289 296 297 299 287 274 252 235
173 169 157 132 120 127 126 129 139 140 156 175 182 229 265 271 233 247 278 289 287 281 278 290 306 315 313 305 298 302 308 300 305 303 298 294 300 299 297 285 278 275 252
158 141 144 144 149 145 126 120 120 138 155 164 164 82 342 283 257 264 290 313 314 321 324 319 297 300 309 315 308 297 303 302 301 304 304 296 295 297 299 296 279 275 281
169 167 172 172 167 156 145 141 146 178 164 136 149 178 252 245 244 255 266 302 318 327 327 323 316 308 313 317 315 314 310 308 316 320 315 306 296 288 289 293 286 283 285
182 188 188 188 178 159 158 157 155 198 174 151 173 225 247 248 234 285 308 331 332 330 341 350 341 331 319 310 316 312 322 322 324 324 316 322 312 309 303 296 295 289 280
212 210 203 195 199 202 209 197 207 241 179 174 227 265 203 119 73 321 353 6 354 355 14 358 335 331 326 330 324 323 328 325 325 323 321 322 323 315 312 314 318 311 295
220 210 207 209 213 212 204 203 208 198 183 196 216 224 197 175 236 321 20 354 359 12 10 355 346 325 312 318 323 327 328 316 307 304 309 314 322 330 322 322 322 319 310
221 219 210 210 215 205 189 185 178 182 195 212 222 219 196 188 206 171 276 308 341 359 337 329 324 322 319 324 320 321 323 307 295 295 299 306 314 313 308 303 309 306 304
219 217 205 198 186 184 177 156 169 182 198 221 228 232 211 206 218 224 244 267 293 304 299 305 307 307 307 317 315 315 298 298 300 304 309 305 298 305 313 311 301 309 309
216 199 176 159 170 193 167 153 179 194 230 241 236 231 222 216 221 223 232 246 255 270 291 305 294 279 285 303 310 313 287 295 297 299 300 302 303 304 309 302 297 302 305
205 172 161 170 193 190 163 167 193 228 249 261 247 233 231 228 222 214 218 217 240 270 286 294 299 288 285 300 307 309 292 275 286 290 292 293 304 307 310 312 294 291 301
182 167 164 186 200 182 165 182 222 240 243 251 254 250 247 242 231 201 217 218 213 231 265 287 301 296 291 303 305 307 304 303 285 281 283 288 304 308 311 313 313 314 318
207 185 168 186 225 204 180 201 235 223 205 242 257 260 267 255 235 211 214 222 220 226 257 264 282 296 299 297 305 304 303 301 295 281 288 297 306 311 312 319 322 326 322
206 187 169 191 237 241 221 216 226 209 197 239 255 254 244 250 245 238 225 220 225 232 246 254 268 285 295 293 291 284 286 289 292 293 296 306 309 312 312 314 318 314 294
240 203 202 222 245 246 247 240 220 193 210 242 247 248 246 244 244 250 236 238 237 235 240 240 242 261 275 281 290 295 285 276 275 290 303 312 317 319 316 315 310 300 298
227 222 227 236 249 247 254 255 229 205 208 239 240 232 238 241 236 247 283 275 265 273 273 270 270 270 275 287 291 292 291 291 293 294 286 291 291 290 295 298 301 296 286